Regional Weather Roundup
Issued by NWS

Home | Current Version | Previous Version | Graphics & Text | Print | Product List | Glossary On
Versions: 1 2 3 4 5 6 7 8 9 10 11 12 13 14 15 16 17 18 19 20 21 22 23 24 25 26 27 28 29 30 31 32 33 34 35 36 37 38 39 40 41 42 43 44 45 46 47 48 49 50
000
ASUS43 KLSX 261707
RWRMO

WEATHER SUMMARY FOR MISSOURI
NATIONAL WEATHER SERVICE SPRINGFIELD MO
1200 PM CDT THU MAY 26 2016

NOTE: "FAIR" INDICATES FEW OR NO CLOUDS BELOW 12,000 FEET WITH NO
       SIGNIFICANT WEATHER AND/OR OBSTRUCTIONS TO VISIBILITY.
       CURRENT SKY AND/OR WEATHER CONDITIONS ARE NOT AVAILABLE FOR
       CHILLICOTHE AND FARMINGTON.

MOZ001>031-035>038-043-044-053-054-261800-
...NORTHERN AND WESTERN MISSOURI...

CITY           SKY/WX    TMP DP  RH WIND       PRES   REMARKS
KANSAS CTY INT CLOUDY    71  66  84 S9        29.88S
KANSAS C DTWN  CLOUDY    73  62  68 VRB6      29.88F
LEE`S SUMMIT   PTSUNNY   78  69  73 E8        29.90S
ST JOSEPH      CLOUDY    68  65  90 SE8       29.86F
CHILLICOTHE      N/A     73  63  70 NW8G17    29.91S
KIRKSVILLE     CLOUDY    79  62  56 S6        29.92S

$$
MOZ066>068-077>081-088>096-101>105-261800-
...SOUTHWEST MISSOURI...

CITY           SKY/WX    TMP DP  RH WIND       PRES   REMARKS
SPRINGFIELD    SUNNY     83  70  64 S10       29.94F
JOPLIN         MOSUNNY   85  73  67 S17G23    29.90F HX  91
BRANSON        PTSUNNY   82  72  69 S8        29.99F

$$
MOZ032>034-039>042-045>050-055>058-069>072-261800-
...CENTRAL MISSOURI...

CITY           SKY/WX    TMP DP  RH WIND       PRES   REMARKS
COLUMBIA       PTSUNNY   80  68  66 S5        29.91R
JEFFERSON CITY PTSUNNY   79  69  71 SE9       29.90S
ROLLA          CLOUDY    72  68  87 E10       29.90F
SEDALIA        SUNNY     81  67  62 SW6       29.93R
WARRENSBURG    SUNNY     81  68  65 SE8       29.90S

$$
MOZ051-052-059>065-261800-
...EAST CENTRAL MISSOURI...

CITY           SKY/WX    TMP DP  RH WIND       PRES   REMARKS
ST LOUIS INTL  CLOUDY    74  65  73 S17G25    29.94F
SPIRIT OF STL  MOSUNNY   75  68  78 S16G28    29.93F
ST CHARLES     MOSUNNY   77  68  73 S13       29.94F

$$
MOZ072>076-082>087-097>100-106>115-261800-
...SOUTH CENTRAL AND SOUTHEAST MISSOURI...

CITY           SKY/WX    TMP DP  RH WIND       PRES   REMARKS
CAPE GIRARDEAU CLOUDY    70  65  84 E20G25    30.00S
FARMINGTON     LGT RAIN  66  65  96 N6        30.02F
POPLAR BLUFF   CLOUDY    78  72  81 S14       30.00R
WEST PLAINS    PTSUNNY   83  70  64 SW10      29.99F

$$



USA.gov is the U.S. government's official web portal to all federal, state and local government web resources and services.